[[{"header":{"parameterUnit":"m.s-1","parameterCategory":1,"la1":30.2991,"la2":30.254,"lo1":-89.0895,"lo2":-89.0444,"dy":0.0017,"dx":0.0017,"nx":28,"ny":28,"refTime":"2023-10-12T21:00:00:Z","depth":0,"parameterNumber":2,"parameterNumberName":"U-component_of_WINDS"},"data":[0,0,0,0,0,0,0,0,0,0,0,0,0,0,0,0,0,0,0,0,0,0,0,0,0,0,0,0,0,0,0,0,0,0,0,0,0,0,0,0,0,0,0,0,0,0,0,0,0,0,0,0,0,0,0,0,0,0,-3.2063,-3.2064,0,-3.209,-3.209,-3.2091,-3.1997,-3.1994,-3.1991,-3.1988,-3.2016,-3.2019,-3.2022,0,0,0,0,0,0,0,0,0,0,0,0,0,-3.193,-3.1933,-3.2063,-3.2064,-3.2064,-3.209,-3.209,-3.2091,-3.1997,-3.1994,-3.199,-3.1987,-3.2015,-3.2019,-3.2023,0,0,0,0,0,0,0,0,0,0,0,0,0,-3.1975,-3.1934,-3.2063,-3.202,-3.2017,-3.209,-3.209,-3.2091,-3.1998,-3.1994,-3.1989,-3.1986,-3.2013,-3.2018,-3.2023,-3.2139,0,0,-3.2039,-3.2041,0,0,0,0,0,0,0,0,-3.1973,-3.198,-3.2026,-3.2023,-3.202,-3.2036,-3.2053,-3.2107,-3.1999,-3.2005,-3.1988,-3.1983,-3.2026,-3.203,-3.2044,-3.214,-3.2141,-3.2039,-3.2042,-3.2044,-3.2046,0,0,0,0,0,0,0,-3.197,-3.1979,-3.2074,-3.2027,-3.2023,-3.1999,-3.2001,-3.2063,-3.2039,-3.2004,-3.1998,-3.2002,-3.2023,-3.2039,-3.2044,-3.2142,-3.2039,-3.2043,-3.2046,-3.2048,-3.2332,-3.2337,0,0,0,0,0,0,-3.1972,-3.1977,-3.2073,-3.2075,-3.1985,-3.2005,-3.2007,-3.2035,-3.2038,-3.2034,-3.2006,-3.1998,-3.2033,-3.2038,-3.2044,-3.2179,-3.2044,-3.2049,-3.2052,-3.2328,-3.2333,-3.2338,0,0,0,0,0,0,-3.197,-3.1982,-3.2072,-3.2024,-3.2033,-3.2012,-3.2044,-3.2038,-3.2053,-3.2039,-3.2034,-3.2027,-3.203,-3.2037,-3.2116,-3.2179,-3.2051,-3.2056,-3.2323,-3.233,-3.2336,-3.245,0,0,0,0,0,0,-3.1966,-3.1981,-3.2026,-3.2025,-3.2036,-3.2144,-3.2048,-3.2041,-3.2062,-3.2052,-3.2057,-3.2054,-3.2027,-3.2109,-3.2121,-3.2183,-3.206,-3.2317,-3.2326,-3.2334,-3.2441,-3.246,-3.2477,0,0,0,0,0,-3.1962,-3.2057,-3.2028,-3.204,-3.2091,-3.2147,-3.2153,-3.212,-3.2068,-3.2112,-3.2102,-3.2054,-3.217,-3.2118,-3.213,-3.2195,-3.2313,-3.2323,-3.2333,-3.2433,-3.2456,-3.2476,0,0,0,0,0,0,-3.2065,-3.2056,-3.2024,-3.2122,-3.2136,-3.2131,-3.2186,-3.2147,-3.2176,-3.2165,-3.2122,-3.2124,-3.221,-3.221,-3.2152,-3.2307,-3.2232,-3.2245,-3.2304,-3.2326,-3.2343,-3.2342,-3.2064,0,0,0,0,0,-3.2099,-3.2146,-3.2135,-3.2223,-3.2231,-3.2208,-3.2231,-3.2204,-3.2217,-3.2222,-3.2218,-3.2233,-3.2272,-3.2299,-3.2334,-3.244,-3.2439,-3.2491,-3.2509,-3.2524,-3.2536,-3.2591,-3.2613,-3.2372,-3.2372,-3.2372,0,0,-3.2171,-3.2171,-3.2203,-3.2244,-3.2251,-3.23,-3.2213,-3.2269,-3.2304,-3.2231,-3.2304,-3.2302,-3.2315,-3.2407,-3.2448,-3.241,-3.2602,-3.2537,-3.2549,-3.2553,-3.2604,-3.2626,-3.2647,-3.2379,-3.2378,-3.2376,0,0,-3.2325,-3.2331,-3.2403,-3.2413,-3.2425,-3.2409,-3.2426,-3.2427,-3.2423,-3.2496,-3.2441,-3.2483,-3.2552,-3.2563,-3.2578,-3.2735,-3.2692,-3.2748,-3.2842,-3.2896,-3.2915,-3.2932,-3.2987,-3.3008,-3.276,-3.276,-3.276,0,-3.2412,-3.2483,-3.2446,-3.2505,-3.2524,-3.2459,-3.2532,-3.2543,-3.2567,-3.2581,-3.2538,-3.2623,-3.2627,-3.2721,-3.2759,-3.2773,-3.2791,-3.2747,-3.2915,-3.2932,-3.2947,-3.2999,-3.302,-3.2767,-3.2766,-3.2765,-3.2765,0,-3.2589,-3.264,-3.2697,-3.2721,-3.2746,-3.2812,-3.2784,-3.2814,-3.2785,-3.2773,-3.2848,-3.285,-3.2884,-3.2905,-3.2877,-3.2994,-3.297,-3.2923,-3.2847,-3.2977,-3.3026,-3.3045,-3.2777,-3.2774,-3.2772,-3.277,0,0,-3.281,-3.2812,-3.2834,-3.2843,-3.2852,-3.289,-3.2953,-3.2986,-3.3012,-3.3031,-3.3082,-3.3141,-3.3096,-3.3113,-3.3086,-3.3133,-3.3257,-3.3079,-3.3079,-3.3112,-3.3386,-3.3422,-3.3446,-3.3228,-3.3232,-3.3235,-3.3384,0,-3.2962,-3.3069,-3.3036,-3.3144,-3.3189,-3.3128,-3.3182,-3.3193,-3.3183,-3.322,-3.3208,-3.3251,-3.3189,-3.3199,-3.3243,-3.3233,-3.3311,-3.3221,-3.3275,-3.3277,-3.3273,-3.3471,-3.351,-3.3651,-3.3403,-3.3406,-3.3409,0,-3.3153,-3.3178,-3.3291,-3.329,-3.3308,-3.3358,-3.3385,-3.3422,-3.3432,-3.3421,-3.344,-3.3402,-3.3463,-3.3387,-3.3469,-3.3409,-3.3429,-3.3427,-3.3431,-3.3435,-3.3351,-3.348,-3.3695,-3.3717,-3.3438,-3.3436,-3.3434,0,-3.3302,-3.3365,-3.3439,-3.345,-3.3452,-3.3488,-3.349,-3.3497,-3.3519,-3.3542,-3.3556,-3.3587,-3.3604,-3.3628,-3.36,-3.3547,-3.3687,-3.3608,-3.3679,-3.368,-3.3711,-3.3709,-3.3932,-3.3724,-3.3724,-3.3724,-3.3723,0,-3.3475,-3.3546,-3.3506,-3.3553,-3.363,-3.3591,-3.3669,-3.3664,-3.367,-3.3714,-3.3663,-3.3705,-3.3665,-3.3703,-3.3681,-3.3752,-3.376,-3.3753,-3.3746,-3.3757,-3.3758,-3.377,-3.3759,-3.3729,-3.3728,-3.3727,-3.3726,0,-3.3655,-3.3632,-3.3709,-3.3704,-3.3705,-3.3762,-3.3757,-3.3799,-3.3785,-3.3841,-3.3852,-3.383,-3.3872,-3.3846,-3.3889,-3.3874,-3.3967,-3.3947,-3.3963,-3.3958,-3.4029,-3.4023,-3.4267,-3.4297,-3.4071,-3.4073,-3.4075,0,-3.3767,-3.382,-3.382,-3.3846,-3.3852,-3.3893,-3.3915,-3.3879,-3.3904,-3.3919,-3.396,-3.3997,-3.4025,-3.4096,-3.4083,-3.4115,-3.4095,-3.4179,-3.41,-3.4109,-3.4096,-3.4093,-3.4098,-3.4195,-3.4197,-3.42,-3.4201,0,-3.3967,-3.3953,-3.3986,-3.4016,-3.4043,-3.4065,-3.4082,-3.4105,-3.4069,-3.4099,-3.4142,-3.4164,-3.4207,-3.4245,-3.4272,-3.4273,-3.4232,-3.4226,-3.4244,-3.4256,-3.4263,-3.426,-3.4006,-3.4221,-3.4219,-3.4217,-3.4216,-3.4216,-3.4116,-3.416,-3.4167,-3.4206,-3.4215,-3.4232,-3.4271,-3.4261,-3.4296,-3.4328,-3.4304,-3.4355,-3.4362,-3.4394,-3.4401,-3.444,-3.4406,-3.4432,-3.4438,-3.4445,-3.4455,-3.4258,-3.4444,-3.4444,-3.4443,-3.4443,-3.4442,0,-3.4313,-3.4314,-3.435,-3.4376,-3.4406,-3.4364,-3.438,-3.4408,-3.4453,-3.4464,-3.4493,-3.4541,-3.4577,-3.4567,-3.4599,-3.4632,-3.4613,-3.4641,-3.4638,-3.4639,-3.4484,-3.4465,-3.4656,-3.4656,-3.4656,-3.4656,-3.4656,-3.4656,-3.4419,-3.4491,-3.4477,-3.4553,-3.4553,-3.4602,-3.4615,-3.463,-3.4638,-3.4694,-3.4724,-3.4717,-3.4719,-3.4751,-3.4782,-3.4778,-3.4792,-3.4828,-3.4817,-3.4672,-3.4651,-3.463,-3.4612,-3.4831,-3.4831,-3.4969,-3.497,-3.4971]},{"header":{"parameterUnit":"m.s-1","parameterCategory":1,"la1":30.2991,"la2":30.254,"lo1":-89.0895,"lo2":-89.0444,"dy":0.0017,"dx":0.0017,"nx":28,"ny":28,"refTime":"2023-10-12T21:00:00:Z","depth":0,"parameterNumber":3,"parameterNumberName":"V-component_of_WINDS"},"data":[0,0,0,0,0,0,0,0,0,0,0,0,0,0,0,0,0,0,0,0,0,0,0,0,0,0,0,0,0,0,0,0,0,0,0,0,0,0,0,0,0,0,0,0,0,0,0,0,0,0,0,0,0,0,0,0,0,0,-2.7631,-2.7632,0,-2.7686,-2.7687,-2.7687,-2.7664,-2.7663,-2.7662,-2.766,-2.7714,-2.7716,-2.7719,0,0,0,0,0,0,0,0,0,0,0,0,0,-2.7503,-2.7506,-2.7631,-2.7632,-2.7633,-2.7686,-2.7687,-2.7688,-2.7664,-2.7663,-2.7661,-2.766,-2.7713,-2.7716,-2.7719,0,0,0,0,0,0,0,0,0,0,0,0,0,-2.7558,-2.7506,-2.7631,-2.7628,-2.7628,-2.7686,-2.7687,-2.7688,-2.7665,-2.7663,-2.7661,-2.7659,-2.7712,-2.7716,-2.772,-2.7784,0,0,-2.7732,-2.7734,0,0,0,0,0,0,0,0,-2.7555,-2.7563,-2.7628,-2.7628,-2.7628,-2.7666,-2.7661,-2.772,-2.7665,-2.7651,-2.766,-2.7658,-2.7699,-2.7704,-2.7719,-2.7786,-2.7789,-2.7732,-2.7735,-2.7736,-2.7737,0,0,0,0,0,0,0,-2.7551,-2.7561,-2.7653,-2.7628,-2.7629,-2.7622,-2.7628,-2.7672,-2.7685,-2.7652,-2.765,-2.7657,-2.7699,-2.7715,-2.772,-2.7789,-2.7732,-2.7736,-2.7738,-2.774,-2.791,-2.7912,0,0,0,0,0,0,-2.7548,-2.7558,-2.7651,-2.7655,-2.7586,-2.7626,-2.7632,-2.7656,-2.7685,-2.7687,-2.7659,-2.7656,-2.7709,-2.7715,-2.7722,-2.7798,-2.7736,-2.774,-2.7742,-2.7908,-2.7911,-2.7913,0,0,0,0,0,0,-2.7545,-2.7557,-2.7649,-2.7606,-2.7617,-2.763,-2.7657,-2.7658,-2.7674,-2.769,-2.7692,-2.7673,-2.7708,-2.7716,-2.7768,-2.7799,-2.7742,-2.7745,-2.7906,-2.7909,-2.7912,-2.795,0,0,0,0,0,0,-2.7542,-2.7556,-2.7581,-2.7607,-2.7619,-2.7696,-2.7659,-2.7661,-2.7681,-2.7678,-2.7704,-2.7706,-2.7707,-2.7763,-2.7772,-2.7804,-2.7748,-2.7903,-2.7907,-2.7911,-2.7946,-2.7955,-2.7962,0,0,0,0,0,-2.7537,-2.759,-2.7583,-2.7594,-2.7652,-2.7698,-2.7705,-2.7706,-2.7684,-2.7709,-2.7719,-2.7705,-2.7794,-2.7768,-2.7779,-2.7812,-2.7901,-2.7906,-2.7911,-2.7943,-2.7953,-2.7961,0,0,0,0,0,0,-2.7567,-2.7593,-2.7585,-2.7648,-2.7671,-2.7694,-2.7725,-2.7716,-2.7745,-2.7741,-2.774,-2.7746,-2.7799,-2.7811,-2.7781,-2.7874,-2.7844,-2.7851,-2.7865,-2.7875,-2.7882,-2.7878,-2.7752,0,0,0,0,0,-2.7581,-2.7617,-2.7637,-2.769,-2.7702,-2.7712,-2.7732,-2.7731,-2.7754,-2.7763,-2.7777,-2.78,-2.7833,-2.7854,-2.7886,-2.7948,-2.7953,-2.7976,-2.7983,-2.799,-2.7996,-2.8028,-2.8038,-2.7929,-2.7929,-2.7929,0,0,-2.7609,-2.7628,-2.7651,-2.7697,-2.7714,-2.7751,-2.772,-2.776,-2.7787,-2.7769,-2.7819,-2.783,-2.7855,-2.7913,-2.7938,-2.7924,-2.8027,-2.7996,-2.8001,-2.8003,-2.8034,-2.8045,-2.8054,-2.7932,-2.7932,-2.7931,0,0,-2.768,-2.7699,-2.7744,-2.7762,-2.779,-2.7796,-2.7807,-2.7831,-2.7838,-2.7888,-2.7876,-2.7907,-2.7964,-2.7982,-2.7998,-2.8075,-2.8063,-2.8085,-2.8124,-2.8156,-2.8165,-2.8172,-2.8199,-2.8208,-2.8091,-2.8091,-2.8091,0,-2.7712,-2.7767,-2.7768,-2.7809,-2.7829,-2.7816,-2.7861,-2.7878,-2.7914,-2.7928,-2.7911,-2.7981,-2.7997,-2.8058,-2.8077,-2.8091,-2.8102,-2.8082,-2.8164,-2.8171,-2.8178,-2.8203,-2.8213,-2.8094,-2.8094,-2.8093,-2.8093,0,-2.7805,-2.7843,-2.7876,-2.7912,-2.7936,-2.7979,-2.7985,-2.8008,-2.8005,-2.8012,-2.8063,-2.8081,-2.8116,-2.813,-2.8127,-2.819,-2.818,-2.8164,-2.8133,-2.8191,-2.8215,-2.8224,-2.8097,-2.8096,-2.8096,-2.8095,0,0,-2.7895,-2.7931,-2.7943,-2.7958,-2.7987,-2.8017,-2.8058,-2.8093,-2.8112,-2.8137,-2.8171,-2.822,-2.8204,-2.8223,-2.8222,-2.825,-2.8308,-2.823,-2.823,-2.8243,-2.8377,-2.8389,-2.84,-2.83,-2.8302,-2.8304,-2.8375,0,-2.7967,-2.8042,-2.8043,-2.8111,-2.8146,-2.8133,-2.8169,-2.819,-2.8198,-2.8228,-2.8236,-2.827,-2.8247,-2.8259,-2.8286,-2.8295,-2.8335,-2.829,-2.8331,-2.8332,-2.8324,-2.8413,-2.8425,-2.8492,-2.8384,-2.8386,-2.8387,0,-2.8062,-2.809,-2.8162,-2.8185,-2.8199,-2.8232,-2.8263,-2.8292,-2.8315,-2.8318,-2.8339,-2.8333,-2.8375,-2.8343,-2.8399,-2.8369,-2.8385,-2.8392,-2.8395,-2.8398,-2.8363,-2.8417,-2.8513,-2.8523,-2.8402,-2.84,-2.8399,0,-2.8119,-2.8176,-2.8225,-2.8239,-2.8268,-2.8291,-2.8303,-2.8325,-2.8345,-2.8371,-2.8384,-2.8415,-2.8432,-2.8455,-2.8457,-2.8435,-2.8513,-2.8482,-2.8516,-2.8516,-2.8533,-2.8532,-2.8632,-2.8545,-2.8545,-2.8545,-2.8545,0,-2.8199,-2.8243,-2.8251,-2.8282,-2.833,-2.8331,-2.8378,-2.8389,-2.8408,-2.8439,-2.843,-2.8459,-2.846,-2.849,-2.8492,-2.8537,-2.8545,-2.8548,-2.8548,-2.8549,-2.8548,-2.8559,-2.8554,-2.8548,-2.8547,-2.8547,-2.8546,0,-2.8271,-2.8279,-2.8332,-2.8355,-2.8362,-2.8396,-2.8415,-2.8443,-2.845,-2.849,-2.8499,-2.8509,-2.8544,-2.8548,-2.8589,-2.859,-2.8644,-2.8639,-2.8636,-2.8635,-2.8669,-2.8665,-2.8779,-2.8793,-2.8698,-2.8699,-2.87,0,-2.8322,-2.8355,-2.8381,-2.8402,-2.8416,-2.845,-2.8471,-2.8472,-2.8494,-2.8522,-2.8547,-2.8581,-2.8607,-2.8663,-2.8673,-2.8704,-2.8699,-2.8737,-2.8703,-2.8703,-2.8698,-2.8696,-2.8699,-2.8743,-2.8744,-2.8745,-2.8745,0,-2.8409,-2.8411,-2.8442,-2.8474,-2.8499,-2.8524,-2.8547,-2.8564,-2.8569,-2.8594,-2.8629,-2.865,-2.8691,-2.8724,-2.8754,-2.8766,-2.8756,-2.8756,-2.8765,-2.8766,-2.8762,-2.8764,-2.8653,-2.8753,-2.8752,-2.8752,-2.8751,-2.8751,-2.8471,-2.85,-2.8523,-2.8557,-2.8575,-2.8597,-2.8625,-2.8635,-2.8665,-2.8699,-2.8698,-2.8737,-2.8758,-2.8797,-2.8811,-2.884,-2.8828,-2.8842,-2.8845,-2.8848,-2.8851,-2.8758,-2.8846,-2.8846,-2.8845,-2.8845,-2.8845,0,-2.8558,-2.8572,-2.8603,-2.8637,-2.8663,-2.8653,-2.8678,-2.87,-2.8735,-2.8756,-2.8783,-2.8823,-2.8855,-2.8867,-2.8898,-2.8919,-2.8916,-2.8927,-2.8925,-2.8928,-2.8861,-2.8849,-2.893,-2.893,-2.893,-2.893,-2.893,-2.893,-2.8606,-2.8653,-2.8658,-2.8714,-2.8728,-2.8766,-2.8781,-2.8801,-2.8818,-2.8863,-2.889,-2.8898,-2.8916,-2.8948,-2.8976,-2.8979,-2.899,-2.9004,-2.9005,-2.8941,-2.8933,-2.8925,-2.8914,-2.9006,-2.9007,-2.9069,-2.907,-2.907]}]]